Location: Unspecified
(0.0000°N, 0.0000°E)
Time: 08:40:54
(UTC+02:00)

Hubble Space Telescope - Visible Passes

Search period start: 05 May 2016 00:00
Search period end: 15 May 2016 00:00
Orbit: 539 x 543 km, 28.5° (Epoch: 04 May)

Date Brightness Start Highest point End Pass type
(mag) Time Alt. Az. Time Alt. Az. Time Alt. Az.
05 May 3.0 21:15:13 10° S 21:16:15 13° S 21:16:15 13° S visible
06 May 2.2 21:05:00 10° SSW 21:07:55 22° SSE 21:07:55 22° SSE visible
07 May 1.7 20:54:58 10° SSW 20:58:40 30° SSE 20:59:45 26° ESE visible
08 May 1.2 20:45:05 10° SW 20:49:04 43° SSE 20:51:43 19° E visible
08 May 3.9 22:26:42 10° W 22:27:11 12° W 22:27:11 12° W visible
09 May 0.8 20:35:19 10° SW 20:39:27 64° SSE 20:43:34 10° ENE visible
09 May 3.5 22:17:36 10° WNW 22:19:14 17° NW 22:19:14 17° NW visible
10 May 3.6 06:51:15 10° N 06:53:17 13° NNE 06:55:19 10° ENE visible
10 May 0.8 20:25:39 10° WSW 20:29:49 86° NNW 20:33:59 10° ENE visible
10 May 3.5 22:08:46 10° WNW 22:11:07 15° NNW 22:11:19 15° NNW visible
11 May 3.4 06:40:50 10° NNW 06:43:43 18° NNE 06:46:37 10° ENE visible
11 May 1.4 20:16:05 10° WSW 20:20:11 58° NNW 20:24:17 10° NE visible
11 May 3.8 22:00:43 10° NW 22:01:34 10° NNW 22:02:24 10° NNW visible
12 May 2.8 06:30:42 10° NNW 06:34:08 25° NNE 06:37:35 10° E visible
13 May 2.2 06:22:14 20° NNW 06:24:32 35° NNE 06:28:20 10° E visible
14 May 1.4 06:14:17 46° N 06:14:54 52° NNE 06:18:56 10° ESE visible
